Regional Weather Roundup
Issued by NWS

Home | Current Version | Previous Version | Text Only | Print | Product List | Glossary On
Versions: 1 2 3 4 5 6 7 8 9 10 11 12 13 14 15 16 17 18 19 20 21 22 23 24 25 26 27 28 29 30 31 32 33 34 35 36 37 38 39 40 41 42 43 44 45 46 47 48 49 50
951
ASUS42 KKEY 271210
RWRKEY

FLORIDA REGIONAL WEATHER ROUNDUP FOR THE FLORIDA KEYS
NATIONAL WEATHER SERVICE KEY WEST FLORIDA
700 AM EST MON FEB 27 2017

...SOUTH FLORIDA AND THE KEYS...

CITY           SKY/WX    TMP DP  RH WIND       PRES   REMARKS
FORT MYERS     CLEAR     64  61  90 E6        30.19
SW REGIONAL AP CLEAR     63  59  87 E6        30.19R
NAPLES         CLEAR     65  64  97 E8        30.18R
MIAMI          PTCLDY    74  65  73 E10       30.19R
WEST KENDALL   PTCLDY    74  65  73 E9        30.18R
HOMESTEAD      PTCLDY    74  70  86 E12       30.18R
MARATHON       CLEAR     76  70  82 E8G18     30.15R
BOCA CHICA NAS PTCLDY    73  69  87 E13       30.15R
KEY WEST INTL  CLEAR     75  70  84 E10       30.15R

...INTERNATIONAL WEATHER...

CITY           SKY/WX    TMP DP  RH WIND       PRES   REMARKS
NASSAU BAHAMAS NOT AVBL
CANCUN MEXICO  PTCLDY    77  70  78 E8        30.03R
COZUMEL MEXICO PTCLDY    73  72  94 E6        30.00R

ADJACENT COASTAL WATERS...

STATION/POSITION TIME  SKY/WX   TEMP    WIND        PRES    WAVE
                                AIR SEA DIR/SP/G            HT/PER
                 (UTC)          (F)     (DEG/KT/KT) (MB)    (FT/S)
PULASKI SHOAL LI 1200            74     100/ 13/ 14 1020.8R
SAND KEY         1150            75     100/ 17/ 19 1021.1R
LONG KEY         1100            76 75  110/ 15/ 17 1021.0R
MOLASSES REEF    1200            76 75  120/ 19/ 21 1021.8R
FOWEY ROCKS      1200            76 76  100/ 20/ 22 1022.5R
Buoy 42097       1130                                 N/A     5/ 6

$$




USA.gov is the U.S. government's official web portal to all federal, state and local government web resources and services.